Dewpoint
-4 -1 -0 0 1 1 1 1 0 0 1 1 1 1 -0 -4 -3 -11 -10 -10 -14 -16 -17 -13 -12 -10 -9 -9 -9 -10 -7 -6 -6 -8 -9 -7 -7 -8 -7 -7 -6 -2 0 2 2
-1 0 1 2 2 1 1 1 0 1 1 1 1 2 1 -3 -2 -10 -9 -8 -12 -15 -16 -17 -12 -8 -7 -5 -6 -7 -7 -9 -8 -10 -9 -6 -6 -8 -8 -8 -7 -6 -5 -3 -1
1 1 2 2 2 2 1 1 1 1 1 1 2 2 1 -2 -1 -9 -9 -7 -10 -14 -15 -14 -11 -8 -6 -5 -4 -6 -9 -8 -7 -5 -5 -5 -6 -7 -6 -6 -8 -9 -7 -5 -0
2 3 3 2 2 2 2 2 1 0 0 1 2 2 0 -3 -3 -7 -5 -4 -9 -14 -14 -11 -10 -8 -6 -6 -5 -5 -6 -6 -6 -4 -4 -5 -6 -6 -6 -8 -9 -7 -7 -6 -3
3 3 3 2 1 2 2 1 -0 0 0 1 2 2 -0 -3 -5 -6 -5 -6 -11 -14 -14 -9 -9 -8 -6 -6 -7 -5 -5 -4 -4 -4 -5 -4 -4 -4 -5 -8 -7 -7 -7 -7 -4
3 3 2 1 2 2 1 0 0 2 2 1 2 2 -2 -2 -6 -4 -11 -12 -13 -14 -15 -12 -10 -8 -5 -5 -8 -4 -4 -5 -6 -6 -6 -4 -5 -5 -8 -8 -9 -8 -8 -7 -6
2 1 2 3 2 1 1 2 2 2 3 2 2 2 -2 -4 -2 -8 -15 -14 -14 -14 -15 -14 -8 -6 -8 -4 -5 -5 -6 -8 -7 -4 -5 -6 -6 -3 -7 -7 -10 -11 -10 -8 -6
2 3 3 2 1 1 2 3 3 3 2 3 2 2 -2 -2 -7 -13 -14 -13 -13 -13 -11 -10 -6 -5 -5 -5 -5 -4 -6 -2 -8 -5 -5 -7 -4 -8 -9 -9 -9 -9 -10 -8 -7
3 2 2 1 1 2 4 3 3 3 3 2 2 1 -1 -5 -12 -10 -9 -12 -9 -6 -6 -7 -7 -5 -5 -3 -1 -3 -2 -4 -4 -6 -4 -6 -5 -8 -9 -9 -8 -9 -9 -8 -5
2 1 1 1 3 5 4 3 2 3 3 2 1 -0 -7 -8 -8 -5 -5 -6 -5 -6 -5 -6 -6 -4 -4 -1 4 -2 -3 -4 -4 -6 -7 -6 -6 -7 -7 -7 -7 -7 -7 -7 -7
1 2 2 2 6 4 3 3 3 3 3 3 2 -6 -8 -8 -5 -3 -2 -4 -6 -7 -5 -5 -1 -2 -5 -5 -5 -5 -5 -5 -6 -8 -5 -5 -3 -5 -7 -7 -7 -7 -7 -7 -7
3 3 2 3 7 5 5 4 5 4 4 3 3 -7 -8 -6 -7 -3 -1 -3 -5 -5 -4 -0 -2 -4 -6 -6 -6 -6 -5 -3 -4 -6 -3 -3 -4 -7 -7 -7 -7 -7 -7 -6 -6
3 3 3 4 7 6 6 5 5 5 3 2 2 -6 -7 -5 -2 -1 -1 -3 -5 -3 -4 -1 -3 -5 -5 -5 -5 -5 -4 -4 -3 -2 -5 -4 -3 -8 -9 -9 -9 -8 -7 -6 -5
3 3 7 8 7 7 6 6 5 4 3 1 0 -3 -5 -5 -3 -1 -1 -1 -3 -2 -3 -3 -5 -5 -5 -4 -4 -2 -5 -3 -2 -1 0 -5 1 -4 -7 -9 -9 -8 -6 -5 -5
5 6 7 9 8 7 6 6 4 2 4 -0 -2 -4 -3 -3 -2 0 -0 -1 -2 -2 -1 0 -3 -3 -3 -3 -5 -2 -3 -2 -2 -1 -1 -2 0 -4 -8 -9 -8 -7 -6 -5 -5
7 8 8 8 9 8 7 5 4 4 4 2 -3 -2 -1 -0 -0 -1 -0 -0 -1 -2 -2 -1 -3 -4 -4 -3 -3 -4 -4 -2 -1 -0 1 -3 -3 -3 -6 -8 -7 -6 -5 -4 -5
9 9 9 9 9 8 7 6 5 4 1 2 1 -2 -1 1 1 -1 -0 1 2 3 3 0 -1 -4 -4 -3 -3 -5 -1 3 2 2 1 -3 -1 -3 -6 -7 -6 -5 -4 -4 -5
9 9 9 9 9 8 6 5 7 3 3 -0 -2 -0 2 3 2 0 0 2 -0 1 2 3 3 -2 -4 -4 -3 -3 -3 3 1 2 0 -2 0 -3 -7 -6 -5 -4 -3 -3 -4
8 9 9 9 8 8 7 8 7 4 2 3 1 4 4 3 3 1 0 2 1 -1 3 2 2 -3 -3 -3 -4 -2 -1 -4 -1 -2 -0 -1 -4 -6 -7 -5 -5 -5 -4 -4 -4
7 7 7 8 8 8 7 8 6 3 3 2 4 3 5 5 3 2 2 0 -0 -1 -3 -1 2 -3 -2 -3 -2 -3 -4 0 -0 1 2 -1 -3 -1 -6 -5 -6 -5 -4 -3 -3
5 5 6 7 8 7 8 7 6 4 2 3 4 4 3 4 3 3 3 1 -2 -3 -3 -4 -1 0 -2 -1 -1 -1 -1 -2 -1 -1 2 1 0 -6 -6 -7 -6 -6 -4 -3 -2
5 4 4 6 5 6 6 5 6 5 4 3 3 3 4 4 5 4 4 3 -1 -3 -2 -4 -2 1 0 -3 -4 -2 -2 -3 2 1 -1 -1 0 -6 -7 -6 -6 -6 -5 -3 -3
2 3 3 4 5 5 4 5 5 5 5 6 5 4 4 5 6 5 4 1 -3 -3 -2 -2 1 4 3 -2 -3 -1 -2 -3 -3 -1 1 3 0 -6 -5 -5 -5 -5 -5 -4 -4
1 1 2 3 3 4 4 4 5 4 4 5 5 5 5 6 4 5 5 2 -1 -1 -1 -0 4 3 4 1 -2 -0 -1 -2 -2 3 2 2 0 -3 -4 -4 -5 -5 -5 -4 -3
-0 0 2 2 2 3 3 3 4 4 4 4 4 4 4 6 5 6 5 4 3 1 2 2 4 3 3 2 2 3 1 -1 1 1 3 1 -0 -2 -4 -4 -4 -3 -3 -3 -4
0 0 1 1 1 2 2 3 3 2 2 3 3 3 4 5 4 5 4 3 2 3 3 3 4 4 3 1 2 3 1 1 1 2 2 2 2 -2 -3 -3 -3 -4 -4 -4 -4
0 0 1 0 -0 2 2 2 2 1 2 2 2 2 3 2 0 0 1 1 2 3 3 3 3 3 2 0 0 2 0 1 1 0 1 3 -0 -3 -3 -3 -4 -4 -4 -4 -3
Wind_Speed
6 6 7 8 10 11 13 15 17 18 18 17 15 16 14 10 7 8 6 12 12 9 6 4 4 3 4 5 5 3 4 2 4 5 2 1 1 2 3 5 5 6 7 6 5
4 5 6 8 10 13 15 16 17 19 19 19 15 16 14 9 3 5 10 11 10 8 5 3 3 4 4 3 3 4 3 7 4 3 2 1 1 4 3 3 5 9 11 10 8
5 6 8 10 13 15 15 16 18 19 19 18 17 19 13 8 2 5 8 8 7 5 3 3 4 5 5 4 5 1 2 2 0 2 3 2 4 3 2 3 8 8 7 8 8
5 7 10 12 14 16 18 18 19 21 20 19 17 17 12 6 1 8 11 12 10 5 4 2 2 3 3 3 2 3 3 1 2 1 2 2 4 6 8 12 12 7 8 7 10
6 8 10 12 13 15 18 19 21 22 21 19 15 15 9 3 3 8 10 8 6 4 3 1 2 3 4 3 3 4 3 2 3 7 8 9 11 9 20 21 17 19 15 14 13
8 10 12 13 14 16 18 19 21 22 21 17 13 13 5 2 6 10 11 6 4 3 5 4 4 6 6 3 4 3 5 7 3 4 4 3 4 2 7 5 9 9 14 15 15
9 11 13 15 17 17 19 21 21 21 18 12 11 9 3 1 6 10 8 5 5 6 6 7 5 2 3 2 2 2 5 4 4 3 1 3 5 6 8 10 12 11 11 13 13
10 12 15 17 19 20 21 22 23 18 10 10 9 6 2 3 6 6 6 6 6 6 6 6 4 3 3 2 4 4 4 4 3 7 4 4 6 5 5 8 9 12 14 12 15
11 13 15 18 20 22 22 22 19 15 10 12 5 4 2 4 4 7 7 5 4 5 7 6 3 3 3 3 4 7 2 3 7 5 4 5 12 7 9 18 28 28 22 16 13
12 13 14 16 18 20 19 20 17 8 18 5 5 2 5 5 4 7 5 6 3 3 3 5 4 3 4 6 1 3 3 4 4 5 3 3 16 8 13 16 22 20 16 17 17
13 13 15 16 16 16 17 17 20 4 22 5 9 5 6 5 4 8 10 3 4 5 5 6 6 3 1 2 2 2 1 4 4 2 3 2 12 17 16 6 9 12 12 12 18
14 14 14 15 14 14 15 12 11 8 8 7 5 3 4 6 3 10 10 4 5 3 5 5 2 2 1 2 1 1 2 4 4 1 1 4 17 3 1 1 5 11 14 15 16
15 14 14 14 14 10 12 12 14 16 2 3 2 1 1 3 4 8 11 5 8 5 5 2 2 1 1 1 1 2 3 2 4 6 1 6 6 1 2 2 3 10 14 16 21
17 16 16 14 11 9 7 11 14 14 4 4 2 1 0 1 0 3 5 3 3 2 2 3 1 1 0 3 4 3 2 1 4 3 2 5 5 5 2 5 3 14 18 21 24
19 17 16 14 12 10 8 8 11 5 4 3 0 0 1 1 2 1 3 2 4 2 4 4 3 3 3 4 5 5 2 1 0 2 3 1 2 6 2 1 4 11 20 23 23
21 19 16 16 15 11 6 6 4 5 6 1 1 1 1 0 1 1 1 3 2 2 2 4 1 2 3 1 1 1 2 3 3 3 2 1 2 5 3 2 5 9 16 19 20
25 20 18 18 14 9 5 4 4 4 1 5 4 2 2 2 1 1 2 1 1 3 3 4 2 2 2 1 3 2 3 4 5 3 4 1 1 10 4 4 4 7 15 15 16
28 24 21 22 18 13 7 2 5 5 5 2 5 4 4 5 2 1 2 1 3 3 2 3 5 6 3 2 3 2 1 3 5 3 4 4 6 5 4 6 4 3 7 9 13
20 24 27 26 21 19 15 6 8 7 4 6 3 2 2 2 3 3 5 5 4 6 5 3 5 1 2 2 2 3 2 3 3 2 1 3 6 8 3 5 3 3 3 7 9
12 14 18 27 26 25 7 10 8 11 8 4 8 7 6 4 4 4 5 4 3 7 3 3 4 0 1 2 4 2 4 3 2 3 5 4 5 6 2 4 4 4 4 2 6
9 5 10 21 27 20 12 8 5 15 16 8 10 7 6 6 7 5 6 3 5 5 7 5 4 2 3 7 9 3 3 2 2 4 4 2 5 5 5 5 6 7 5 2 1
7 3 10 18 9 6 6 6 6 7 15 6 4 8 9 10 7 7 9 8 12 11 7 6 4 5 10 2 0 3 6 7 4 5 3 1 10 3 5 5 6 7 7 6 5
6 4 8 17 4 4 1 2 4 4 4 5 6 4 3 7 4 8 6 3 10 8 7 5 2 3 3 2 1 5 5 4 3 3 10 5 8 0 4 5 6 8 9 9 10
3 2 6 14 6 1 1 2 2 2 2 2 4 5 3 5 6 3 4 3 5 4 2 9 6 6 12 3 3 4 5 6 8 4 5 12 22 8 9 8 9 12 12 18 27
4 3 3 2 4 8 3 1 2 4 6 7 3 11 6 4 5 7 6 2 2 7 5 3 4 6 13 8 8 10 12 8 10 15 9 19 15 12 15 6 10 15 24 22 21
6 4 3 3 4 9 7 5 8 7 2 2 1 1 6 8 7 4 4 4 5 5 8 7 6 5 5 10 12 16 15 13 16 17 17 22 26 21 32 21 17 14 14 15 16
9 16 8 3 1 3 5 9 9 12 8 13 9 5 8 11 18 15 13 13 10 7 8 4 3 3 5 5 4 10 10 15 12 15 18 18 24 20 8 7 10 8 11 9 9
Wind_Direction
35 22 12 1 355 354 353 349 350 348 348 347 345 347 342 337 339 4 7 20 14 10 16 34 24 80 77 66 58 81 65 143 183 160 237 268 29 235 249 250 242 231 240 251 280
26 9 359 354 352 353 351 346 345 348 348 346 348 346 339 333 326 15 12 11 6 5 15 52 65 82 64 48 36 72 100 199 185 201 226 321 284 303 291 275 270 263 261 265 260
5 355 351 352 350 346 345 344 343 345 346 347 345 344 339 333 333 360 355 355 357 359 17 53 91 102 90 54 20 61 134 166 316 259 270 278 292 283 321 295 262 271 286 262 238
350 346 346 345 344 343 341 341 340 341 342 343 343 347 344 339 348 351 354 351 350 359 10 13 103 103 90 105 81 83 53 55 333 303 302 300 306 291 249 259 284 277 275 259 238
339 338 336 337 338 338 337 336 335 336 337 337 341 348 344 4 11 345 345 343 343 6 23 54 65 81 91 69 50 46 18 283 276 288 282 272 264 253 269 281 274 259 256 247 237
326 330 333 335 337 336 334 332 332 332 331 330 336 344 347 52 335 341 352 6 25 57 58 50 72 88 103 111 126 199 246 280 324 337 275 271 266 283 247 257 283 281 265 251 246
322 328 333 335 336 334 334 332 330 329 330 330 337 342 346 62 344 348 6 27 54 63 74 82 82 77 115 101 16 340 357 29 35 345 276 315 280 233 297 284 305 298 284 248 249
325 332 334 335 336 335 335 331 329 328 336 340 337 347 41 357 351 12 32 58 63 65 63 55 64 68 45 101 40 50 59 24 359 357 347 13 285 297 339 326 318 327 319 274 249
320 326 330 333 336 336 339 335 331 334 355 342 349 346 46 340 24 36 47 59 62 70 55 41 28 41 40 51 21 12 19 357 325 36 346 48 288 259 308 308 302 305 301 286 268
311 317 324 329 334 337 346 348 344 335 354 358 10 18 27 351 26 25 26 47 41 53 42 28 32 56 30 37 311 324 344 315 253 327 8 260 272 295 328 299 296 310 298 278 263
304 312 321 328 334 343 349 9 14 6 347 15 328 323 332 347 49 25 27 35 43 50 35 19 59 42 347 42 106 126 202 252 251 307 326 308 293 297 325 13 17 19 0 317 280
296 306 313 321 330 343 353 32 32 335 313 325 314 338 344 352 333 14 17 31 40 49 338 21 100 201 170 110 103 155 276 286 294 270 299 326 289 307 171 75 45 15 4 355 333
287 295 304 314 319 328 1 14 2 357 5 314 309 346 94 17 12 5 22 35 45 36 18 155 178 230 140 311 336 247 209 271 250 328 341 300 288 194 227 190 15 6 2 1 351
275 284 297 306 309 323 346 354 353 352 61 281 254 283 308 299 293 22 29 78 67 90 345 244 325 164 244 263 137 290 199 236 293 33 293 9 285 300 295 307 312 352 2 360 358
268 273 285 296 288 309 318 339 347 3 8 279 229 269 304 187 164 232 24 87 138 177 112 243 188 208 227 220 182 213 192 230 83 100 16 87 100 268 343 315 306 335 358 0 2
264 270 275 274 282 282 287 320 334 44 254 11 246 276 232 262 312 322 2 39 79 92 2 267 309 216 217 131 244 121 124 61 57 87 357 239 132 288 226 182 307 326 354 -0 3
259 256 252 255 259 260 257 292 31 148 328 196 180 174 177 208 167 52 55 358 188 4 0 329 262 354 335 55 359 41 30 336 340 9 231 189 236 244 210 215 211 303 337 6 14
255 248 235 232 244 225 199 39 208 245 223 121 150 149 208 166 179 118 111 300 206 98 130 162 309 166 180 205 191 51 105 153 263 264 292 330 239 250 195 174 219 281 326 1 17
218 216 219 220 218 201 175 207 192 191 195 152 75 170 240 242 182 154 190 203 208 172 185 177 274 153 140 151 139 169 157 151 111 110 353 245 299 297 256 246 241 253 350 12 30
209 212 216 209 202 195 205 225 208 180 148 146 185 169 185 208 178 181 208 190 197 180 142 199 291 293 103 71 33 194 153 74 16 285 268 277 283 249 246 196 219 249 286 18 68
223 237 199 199 200 187 223 220 202 199 175 171 195 200 198 178 195 199 212 201 199 147 163 154 174 202 124 201 183 162 200 101 146 169 214 287 246 218 222 203 211 250 257 256 21
243 194 199 196 187 215 205 186 190 189 197 183 173 197 183 184 196 212 206 196 169 152 176 207 171 219 212 185 180 192 210 160 169 224 234 216 264 252 226 234 232 265 271 273 293
273 302 199 199 211 219 278 207 216 189 187 160 183 205 188 179 224 221 188 127 157 156 175 181 209 276 295 0 351 216 195 187 124 126 231 224 260 256 249 246 245 266 270 276 306
290 270 218 227 245 42 85 283 238 231 257 190 187 147 164 216 231 224 188 170 150 173 206 162 197 199 255 231 119 197 206 204 204 194 232 229 268 253 284 256 264 268 269 291 301
225 250 231 206 230 228 254 309 233 233 224 205 243 234 196 237 234 218 184 154 182 154 132 215 255 214 254 250 258 254 251 210 205 230 226 264 235 264 261 253 262 282 289 297 295
208 219 231 247 211 207 223 187 214 262 246 285 269 293 275 237 229 203 198 184 195 167 174 172 271 211 258 234 236 251 245 218 234 242 245 251 267 258 274 286 280 292 304 305 310
247 248 276 206 25 229 208 225 217 213 227 223 254 282 268 249 267 290 288 271 214 175 195 181 214 191 259 210 251 268 230 217 218 233 231 243 250 273 276 264 282 291 304 308 315
Height
1558 1558 1557 1556 1555 1553 1551 1549 1546 1544 1541 1538 1536 1534 1531 1529 1528 1527 1526 1526 1523 1522 1521 1520 1521 1520 1520 1520 1521 1522 1532 1540 1536 1539 1532 1531 1531 1530 1529 1529 1529 1529 1528 1529 1529
1559 1558 1557 1556 1554 1552 1551 1548 1546 1543 1540 1537 1535 1533 1531 1529 1527 1527 1527 1525 1524 1522 1521 1520 1521 1521 1521 1523 1523 1523 1534 1532 1530 1531 1532 1532 1531 1530 1530 1529 1528 1528 1528 1528 1528
1559 1559 1558 1556 1555 1553 1550 1548 1545 1542 1540 1537 1535 1532 1530 1528 1529 1528 1527 1525 1523 1522 1521 1520 1520 1519 1521 1524 1527 1527 1531 1531 1531 1531 1531 1531 1532 1531 1530 1529 1527 1527 1526 1526 1527
1560 1559 1558 1557 1555 1552 1550 1547 1544 1541 1539 1536 1534 1531 1529 1529 1532 1529 1527 1526 1524 1522 1522 1522 1520 1519 1522 1524 1525 1529 1531 1532 1532 1531 1531 1532 1531 1530 1528 1523 1524 1524 1523 1523 1523
1559 1558 1557 1556 1554 1552 1549 1546 1543 1540 1537 1535 1533 1531 1529 1529 1531 1529 1527 1525 1523 1522 1522 1522 1521 1522 1525 1527 1528 1529 1531 1530 1530 1530 1529 1528 1526 1526 1518 1518 1518 1517 1518 1518 1519
1558 1558 1557 1555 1553 1551 1548 1544 1541 1539 1536 1534 1532 1531 1530 1530 1530 1529 1526 1525 1524 1523 1523 1524 1524 1524 1524 1525 1525 1526 1526 1526 1528 1528 1527 1528 1524 1524 1514 1514 1514 1514 1515 1518 1519
1559 1557 1556 1555 1553 1550 1547 1543 1540 1537 1535 1533 1531 1530 1530 1531 1529 1528 1526 1526 1525 1525 1524 1524 1525 1526 1526 1527 1528 1528 1528 1528 1528 1527 1527 1526 1523 1521 1515 1515 1515 1514 1514 1514 1517
1558 1557 1556 1554 1552 1550 1547 1543 1539 1536 1533 1532 1530 1529 1530 1531 1530 1528 1527 1527 1526 1526 1526 1526 1527 1527 1527 1528 1528 1530 1532 1535 1531 1530 1530 1530 1525 1517 1517 1516 1515 1514 1514 1514 1514
1557 1556 1555 1553 1550 1548 1546 1542 1537 1535 1534 1531 1531 1529 1531 1531 1531 1529 1528 1528 1528 1527 1527 1527 1528 1529 1529 1533 1538 1539 1540 1540 1535 1531 1532 1532 1523 1518 1518 1516 1513 1513 1512 1512 1513
1555 1555 1553 1551 1549 1546 1544 1541 1537 1534 1535 1532 1533 1534 1533 1534 1533 1531 1529 1528 1529 1528 1527 1528 1529 1534 1537 1539 1551 1543 1544 1542 1543 1536 1533 1534 1524 1516 1517 1515 1511 1509 1508 1508 1508
1554 1553 1552 1550 1548 1545 1542 1539 1539 1537 1535 1538 1538 1538 1536 1535 1534 1532 1530 1529 1529 1529 1533 1532 1537 1544 1542 1541 1542 1543 1546 1546 1539 1536 1535 1533 1527 1512 1513 1512 1511 1508 1506 1505 1504
1552 1552 1551 1550 1547 1545 1543 1539 1541 1546 1539 1537 1537 1536 1536 1536 1535 1533 1531 1531 1531 1535 1533 1536 1540 1539 1539 1541 1542 1543 1544 1545 1539 1537 1537 1533 1521 1512 1510 1510 1509 1508 1505 1502 1499
1550 1549 1549 1549 1547 1546 1542 1542 1540 1537 1538 1537 1536 1535 1535 1536 1536 1534 1534 1533 1536 1539 1541 1540 1540 1538 1539 1539 1541 1542 1543 1543 1543 1539 1536 1536 1521 1511 1510 1509 1508 1507 1504 1501 1496
1546 1548 1548 1548 1550 1545 1543 1541 1540 1537 1546 1539 1536 1535 1536 1535 1536 1535 1533 1534 1535 1539 1541 1541 1538 1539 1540 1540 1541 1542 1541 1540 1541 1543 1542 1540 1531 1515 1512 1511 1509 1506 1502 1499 1494
1542 1544 1545 1546 1547 1547 1545 1542 1540 1539 1564 1538 1535 1535 1535 1536 1536 1535 1534 1532 1535 1536 1538 1534 1537 1538 1539 1537 1536 1536 1537 1538 1540 1547 1551 1543 1547 1513 1513 1509 1508 1504 1502 1501 1497
1538 1539 1541 1542 1545 1546 1544 1543 1541 1553 1558 1536 1534 1534 1535 1535 1535 1534 1535 1535 1535 1536 1539 1538 1538 1537 1535 1536 1537 1537 1539 1543 1550 1551 1555 1543 1543 1519 1509 1507 1508 1504 1501 1499 1496
1533 1533 1535 1539 1540 1544 1545 1546 1554 1561 1534 1532 1532 1532 1533 1533 1533 1533 1533 1535 1536 1540 1540 1539 1538 1540 1540 1540 1539 1540 1541 1547 1549 1554 1536 1543 1544 1507 1502 1503 1504 1505 1503 1499 1497
1527 1529 1527 1532 1536 1538 1543 1549 1550 1534 1529 1523 1526 1529 1531 1530 1533 1534 1537 1536 1534 1536 1545 1544 1541 1534 1535 1537 1539 1542 1541 1553 1556 1550 1540 1547 1526 1502 1501 1497 1496 1497 1501 1499 1496
1520 1521 1521 1523 1530 1534 1538 1540 1532 1533 1526 1530 1530 1531 1531 1531 1531 1530 1532 1534 1531 1534 1540 1546 1541 1535 1534 1534 1536 1541 1545 1544 1550 1563 1563 1537 1525 1505 1506 1506 1501 1497 1496 1495 1494
1515 1515 1513 1517 1521 1526 1530 1516 1515 1511 1517 1521 1526 1525 1530 1531 1531 1533 1532 1527 1526 1527 1529 1534 1541 1536 1537 1538 1540 1540 1541 1549 1557 1557 1551 1535 1534 1509 1501 1501 1501 1500 1497 1494 1492
1512 1511 1507 1510 1515 1516 1508 1507 1506 1502 1505 1514 1516 1518 1522 1524 1526 1530 1524 1524 1522 1526 1526 1534 1537 1537 1535 1536 1533 1542 1541 1544 1546 1551 1549 1546 1514 1504 1501 1499 1499 1499 1497 1494 1492
1506 1506 1505 1505 1509 1501 1499 1499 1498 1497 1500 1503 1506 1506 1511 1515 1519 1521 1516 1512 1516 1519 1528 1526 1535 1536 1529 1525 1526 1528 1529 1530 1539 1543 1551 1549 1502 1497 1499 1497 1496 1496 1498 1496 1493
1504 1501 1500 1501 1497 1496 1498 1496 1496 1496 1496 1499 1500 1502 1505 1509 1516 1511 1510 1511 1512 1515 1521 1524 1530 1535 1524 1529 1527 1525 1525 1525 1527 1531 1521 1535 1503 1498 1499 1497 1495 1496 1495 1494 1495
1503 1501 1499 1497 1493 1494 1496 1498 1496 1495 1496 1496 1499 1502 1506 1505 1506 1503 1508 1509 1510 1513 1517 1517 1524 1518 1508 1512 1519 1525 1523 1522 1518 1524 1518 1510 1497 1498 1497 1496 1494 1492 1493 1492 1490
1500 1498 1494 1494 1494 1495 1498 1499 1498 1498 1497 1496 1496 1499 1503 1505 1504 1503 1507 1508 1509 1511 1516 1520 1516 1519 1513 1517 1517 1516 1516 1517 1519 1515 1515 1489 1496 1488 1485 1490 1489 1487 1486 1485 1484
1498 1498 1495 1493 1492 1496 1496 1492 1496 1501 1502 1499 1499 1500 1501 1501 1504 1506 1505 1506 1508 1511 1513 1516 1514 1515 1512 1512 1510 1507 1500 1506 1509 1507 1505 1499 1489 1482 1478 1485 1484 1484 1484 1481 1479
1491 1492 1493 1492 1491 1491 1489 1490 1489 1491 1495 1497 1498 1499 1499 1499 1500 1498 1503 1504 1505 1508 1509 1512 1510 1513 1508 1508 1508 1505 1497 1495 1490 1490 1488 1491 1473 1469 1477 1480 1479 1479 1480 1478 1477